SCP
0 0 0 0 0 0 0 0 0 0 0 0 0 0 0 0 0 0 0 0 0 0 0 0 0 0 0 0 0 0 0 0 0 0 0 0 0 0 0 0 0 0 0
0 0 0 0 0 0 0 0 0 0 0 0 0 0 0 0 0 0 0 0 0 0 0 0 0 0 0 0 0 0 0 0 0 0 0 0 0 0 0 0 0 0 0
0 0 0 0 0 0 0 0 0 0 0 0 0 0 0 0 0 0 0 0 0 0 0 0 0 0 0 0 0 0 0 0 0 0 0 0 0 0 0 0 0 0 0
0 0 0 0 0 0 0 0 0 0 0 0 0 0 0 0 0 0 0 0 0 0 0 0 0 0 0 0 0 0 0 0 0 0 0 0 0 0 0 0 0 0 0
0 0 0 0 0 0 0 0 0 0 0 0 0 0 0 0 0 0 0 0 0 0 0 0 0 0 0 0 0 0 0 0 0 0 0 0 0 0 0 0 0 0 0
0 0 0 0 0 0 0 0 0 0 0 0 0 0 0 0 0 0 0 0 0 0 0 0 0 0 0 0 0 0 0 0 0 0 0 0 0 0 0 0 0 0 0
0 0 0 0 0 0 0 0 0 0 0 0 0 0 0 0 0 0 0 0 0 0 0 0 0 0 0 0 0 0 0 0 0 0 0 0 0 0 0 0 0 0 0
0 0 0 0 0 0 0 0 0 0 0 0 0 0 0 0 0 0 0 0 0 0 0 0 0 0 0 0 0 0 0 0 0 0 0 0 0 0 0 0 0 0 0
0 0 0 0 0 0 0 0 0 0 0 0 0 0 0 0 0 0 0 0 0 0 0 0 0 0 0 0 0 0 0 0 0 0 0 0 0 0 0 0 0 0 0
0 0 0 0 0 0 0 0 0 0 0 0 0 0 0 0 0 0 0 0 0 0 0 0 0 0 0 0 0 0 0 0 0 0 0 0 0 0 0 0 0 0 0
0 0 0 0 0 0 0 0 0 0 0 0 0 0 0 0 0 0 0 0 0 0 0 0 0 0 0 0 0 0 0 0 0 0 0 0 0 0 0 0 0 0 0
0 0 0 0 0 0 0 0 0 0 0 0 0 0 0 0 0 0 0 0 0 0 0 0 0 0 0 0 0 0 0 0 0 0 0 0 0 0 0 0 0 0 0
0 0 0 0 0 0 0 0 0 0 0 0 0 0 0 0 0 0 0 0 0 0 0 0 0 0 0 0 0 0 0 0 0 0 0 0 0 0 0 0 0 0 0
0 0 0 0 0 0 0 0 0 0 0 0 0 0 0 0 0 0 0 0 0 0 0 0 0 0 0 0 0 0 0 0 0 0 0 0 0 0 0 0 0 0 0
0 0 0 0 0 0 0 0 0 0 0 0 0 0 0 0 0 0 0 0 0 0 0 0 0 0 0 0 0 0 0 0 0 0 0 0 0 0 0 0 0 0 0
0 0 0 0 0 0 0 0 0 0 0 0 0 0 0 0 -0 -0 -0 0 0 0 0 0 0 0 0 0 0 0 0 0 0 0 0 0 0 0 0 0 0 0 0
0 0 0 0 0 0 0 0 0 0 0 0 0 0 0 0 0 -0 -0 0 0 0 0 0 0 0 0 0 0 0 0 0 0 0 0 0 0 0 0 0 0 0 0
0 0 0 0 0 0 0 0 0 0 0 0 0 0 0 0 0 -0 0 0 0 0 0 0 0 0 0 0 0 0 0 0 0 0 0 0 0 0 0 0 0 0 0
0 0 0 0 0 0 0 0 0 0 0 0 0 0 0 0 0 0 0 0 0 0 0 0 0 0 0 0 0 0 0 -0 -0 -0 -0 -0 -0 0 0 0 0 0 0
0 0 0 0 0 0 0 0 0 0 0 0 0 0 0 0 0 0 0 0 0 0 0 0 0 0 0 0 0 -0 -0 -0 -0 -0 -0 -0 0 0 0 0 0 0 0
0 0 0 0 0 0 0 0 0 0 0 0 0 0 0 0 0 0 0 0 0 0 0 0 0 0 0 0 0 -0 -0 -0 -0 -0 -0 -0 0 0 0 0 0 0 0
0 0 0 0 0 0 0 0 0 0 0 0 0 0 0 0 0 0 0 0 0 0 0 0 0 0 0 0 0 0 0 0 -0 -0 -0 0 0 0 0 0 0 0 0
0 0 0 0 0 0 0 0 0 0 0 0 0 0 0 0 0 0 0 0 0 0 0 0 0 0 0 0 0 0 0 0 0 -0 -0 -0 0 0 0 0 0 0 0
0 0 0 0 0 0 0 0 0 0 0 0 0 0 0 0 0 0 0 0 0 0 0 0 0 0 0 0 0 0 0 0 0 0 0 0 0 0 0 0 0 0 0
0 0 0 0 0 0 0 0 0 0 0 0 0 0 0 0 0 0 0 0 0 0 0 0 0 0 0 0 0 0 0 0 0 0 0 0 0 0 0 0 0 0 0
0 0 0 0 0 0 0 0 0 0 0 0 0 0 0 0 0 0 0 0 0 0 0 0 0 0 0 0 0 0 0 0 0 0 0 0 0 0 0 0 0 0 0
Wind_Speed
7 6 7 7 7 7 6 7 7 6 6 6 5 4 4 3 2 1 1 2 3 3 3 5 5 5 4 3 4 4 3 4 3 2 1 1 2 3 2 2 2 3 3
5 6 7 7 7 7 7 7 7 7 6 6 5 5 4 4 3 2 1 1 3 3 3 4 4 4 5 4 3 4 4 4 4 4 2 1 2 3 3 3 3 3 3
5 5 6 7 7 7 7 7 7 7 7 7 6 6 5 4 3 2 2 1 2 2 2 3 4 5 5 4 4 4 3 3 3 4 3 1 1 2 3 3 4 3 4
4 5 6 6 6 6 6 7 7 7 7 7 6 6 5 4 4 3 3 3 3 2 2 2 3 4 5 5 4 4 4 4 4 4 3 2 2 2 3 4 4 3 4
3 4 5 5 6 6 7 7 7 7 7 6 6 7 6 5 4 4 3 4 4 4 3 2 3 4 5 4 4 4 5 4 4 4 3 2 2 3 3 3 5 5 4
3 3 4 5 6 6 6 6 7 7 7 7 7 7 7 6 8 8 6 4 4 4 4 3 3 4 5 6 7 7 7 6 5 4 3 3 3 3 3 5 5 4 3
2 3 4 4 5 6 6 6 6 6 6 7 7 7 7 7 10 10 9 6 5 4 4 3 3 4 5 5 7 8 6 6 6 5 5 4 4 4 5 5 4 4 3
2 2 3 4 4 5 5 6 5 4 5 5 6 7 7 9 12 12 11 7 6 5 4 4 4 4 4 6 7 7 6 5 5 4 4 3 3 4 5 6 6 6 6
1 1 2 2 3 4 5 5 4 4 5 5 5 7 7 8 12 12 10 5 5 6 5 5 4 4 7 9 8 8 7 6 8 10 9 7 8 9 8 7 6 7 5
1 1 1 2 2 3 4 3 3 3 4 4 6 6 7 7 11 12 10 4 5 4 5 5 7 6 8 9 7 7 7 4 5 6 7 8 7 7 8 6 6 7 4
2 0 1 2 1 2 3 3 3 3 4 5 5 6 7 8 10 12 10 4 4 4 4 4 3 7 8 8 7 5 7 6 6 6 6 5 5 5 4 4 3 5 4
2 1 0 1 1 2 3 3 3 4 4 4 4 5 5 6 8 9 11 9 6 5 4 3 4 8 9 9 7 8 10 8 5 5 5 4 4 4 4 5 6 5 4
2 1 1 0 1 2 2 2 3 3 3 2 3 3 3 4 6 11 11 10 9 5 3 6 7 9 9 7 9 10 8 5 5 5 4 3 2 3 4 4 5 6 7
3 2 2 2 1 1 1 1 2 2 2 2 2 2 2 3 4 4 4 4 6 5 4 6 9 10 8 7 7 6 4 4 4 4 3 2 2 3 3 3 3 3 4
4 3 3 3 3 2 1 0 0 1 1 1 1 1 1 1 3 3 2 2 2 2 2 3 4 3 4 4 4 4 3 3 4 3 3 3 3 3 2 2 2 3 3
4 4 3 3 3 2 2 1 2 2 1 1 2 2 1 2 2 3 3 3 3 4 4 3 3 3 3 3 3 3 2 3 2 3 3 3 3 3 2 2 2 3 3
6 5 4 4 3 3 3 3 2 2 3 3 3 3 3 2 1 2 3 3 3 4 3 2 2 2 2 2 2 2 2 1 2 3 3 3 3 3 3 3 3 3 3
6 6 6 4 4 4 4 4 3 3 2 3 4 5 5 3 2 1 1 3 3 3 2 2 2 2 2 2 2 2 2 2 2 2 3 2 3 3 3 3 3 3 3
6 5 4 4 4 4 4 4 4 4 4 3 2 3 5 4 3 2 1 1 2 1 1 2 2 2 2 2 2 2 2 2 2 2 2 3 3 3 3 3 3 5 3
6 9 7 5 4 4 4 4 4 4 4 4 4 4 2 2 2 2 2 2 3 3 3 3 3 3 3 3 3 3 2 2 2 2 2 2 2 3 4 4 4 3 3
6 6 10 5 5 5 4 5 5 4 5 5 5 6 8 5 5 5 4 4 4 4 4 4 3 3 3 3 3 3 4 3 3 3 3 3 3 3 3 3 3 3 3
6 6 6 6 5 5 5 5 5 5 5 6 5 4 10 5 4 4 5 5 5 5 5 5 4 4 5 5 5 4 4 4 4 4 3 3 3 3 3 3 3 3 3
7 7 6 6 6 7 6 5 5 5 5 6 5 5 5 6 6 6 6 6 5 5 5 5 5 4 4 4 4 5 5 5 5 5 5 4 4 3 3 3 4 4 4
9 8 8 6 6 6 6 6 6 6 6 6 6 6 6 7 7 7 7 6 5 5 5 5 6 7 9 6 4 4 5 5 5 5 7 6 5 4 4 3 4 4 4
9 9 8 8 7 6 6 6 6 6 6 6 6 6 6 7 7 7 6 6 6 6 8 7 6 7 9 10 8 7 8 10 8 6 5 5 6 5 5 4 4 4 4
10 10 8 7 7 7 7 6 6 7 6 6 6 6 6 7 7 7 6 6 6 6 7 7 8 9 10 9 10 12 13 13 12 11 6 5 6 5 5 4 5 4 4
Wind_Direction
349 349 352 353 352 357 5 4 2 5 10 15 15 19 25 18 26 71 201 179 171 176 176 179 183 173 179 182 175 167 167 152 158 155 135 138 132 145 140 133 134 147 167
347 353 356 357 0 5 6 2 5 9 11 17 22 23 24 21 31 46 43 133 153 164 172 174 178 170 174 175 169 171 171 161 154 156 146 145 147 160 151 144 140 136 135
356 3 3 2 4 8 6 5 6 11 17 21 25 26 22 20 33 39 55 86 114 134 157 167 171 161 163 161 161 163 159 151 138 142 147 135 122 139 125 115 112 109 121
7 13 10 2 2 5 7 10 11 16 23 24 26 24 22 23 32 46 62 69 78 80 101 131 145 155 159 157 159 160 151 141 138 138 136 130 121 123 122 124 113 99 100
19 17 7 0 5 10 13 13 14 20 25 22 25 22 17 21 35 45 55 74 74 70 68 87 112 128 149 158 154 152 147 143 143 140 136 131 134 136 140 135 126 112 88
33 14 5 11 13 11 11 13 18 20 19 22 25 23 21 24 36 46 58 68 72 73 67 63 80 95 114 123 134 146 152 151 152 145 144 150 154 147 135 137 135 130 113
37 14 7 14 17 9 12 17 17 17 21 24 22 23 20 18 37 55 61 67 67 61 61 62 74 82 87 93 99 103 106 121 141 147 147 158 155 157 144 140 138 124 114
43 14 3 12 13 7 12 14 10 16 23 23 22 21 23 29 46 57 63 65 63 55 50 58 73 70 85 101 98 90 80 75 97 109 127 135 140 143 142 135 128 107 96
47 2 345 1 11 11 9 4 5 21 27 24 22 25 28 26 40 52 60 62 63 54 45 49 66 78 93 100 99 99 90 76 76 87 92 96 104 113 124 121 121 125 119
226 287 325 357 16 12 3 4 11 29 32 32 34 29 30 27 33 46 56 65 66 55 43 39 55 81 95 99 102 106 103 91 87 80 70 65 77 93 103 126 140 139 131
211 231 1 4 18 24 16 20 29 37 39 36 35 28 28 24 27 38 49 60 68 66 55 39 43 79 92 97 97 101 114 111 95 90 82 70 65 68 70 79 103 135 135
191 179 357 358 16 62 46 33 37 46 48 36 34 28 19 15 22 32 46 57 68 76 62 39 51 71 84 96 96 103 105 99 91 87 83 76 73 71 70 75 78 73 76
180 197 208 73 52 72 76 57 40 42 54 43 42 35 11 5 14 30 40 49 55 65 58 61 66 69 73 80 94 101 99 97 98 96 95 85 77 87 86 77 67 69 61
189 208 197 172 143 81 71 75 71 49 53 55 59 46 17 8 7 6 13 26 38 48 47 54 62 66 66 69 73 74 79 100 112 112 110 94 74 75 78 88 91 80 68
198 207 199 190 179 169 149 118 155 228 205 175 190 181 113 3 327 349 19 18 18 37 67 56 53 55 61 58 58 63 69 85 91 98 107 103 94 90 81 74 85 79 89
196 206 202 197 193 186 183 242 308 260 272 213 202 192 234 247 298 359 18 27 48 85 88 78 80 87 95 94 89 75 70 85 99 112 114 116 120 118 104 85 89 103 111
193 200 200 198 195 195 195 200 240 286 282 275 257 238 229 246 280 346 10 29 68 98 92 102 112 120 120 118 114 110 104 97 107 116 119 125 127 122 118 120 117 112 113
196 200 196 198 199 200 204 206 205 211 243 268 261 248 246 250 267 298 7 57 56 62 113 141 147 147 144 145 145 138 127 113 109 119 124 130 136 133 133 141 146 146 142
193 198 199 199 201 204 206 207 208 212 217 229 242 260 245 247 268 272 167 134 168 175 173 173 173 168 166 163 159 154 151 148 144 138 136 140 144 137 142 153 156 156 147
199 205 194 195 200 205 208 212 215 213 214 214 220 224 200 176 220 236 208 198 198 204 197 190 189 182 175 171 164 157 154 156 154 152 158 157 155 153 159 163 165 165 171
195 204 202 197 203 206 208 214 217 212 213 217 224 216 186 190 210 216 211 208 207 207 203 197 192 187 183 177 172 173 175 182 183 177 173 171 165 164 167 167 172 173 168
191 194 194 200 207 212 215 215 214 215 218 221 228 224 203 200 210 214 216 218 214 209 200 190 192 194 190 186 181 179 184 191 194 189 186 182 176 171 165 166 171 173 174
193 196 199 204 207 216 220 219 215 215 218 218 215 209 198 208 216 217 219 218 212 208 201 193 194 201 202 197 190 182 186 196 196 186 181 181 179 179 175 177 179 175 184
196 199 201 203 205 208 215 221 221 220 218 216 212 209 209 211 215 218 218 214 208 206 199 196 199 204 202 198 197 195 197 195 187 187 184 179 181 182 180 183 188 190 193
198 201 202 203 204 207 213 219 222 224 223 220 215 213 213 212 216 220 216 210 205 206 206 202 202 205 206 202 198 199 202 198 190 180 178 177 182 184 183 185 185 186 188
201 203 205 203 205 206 209 214 219 221 223 224 220 215 213 212 215 217 212 206 205 209 208 206 207 206 205 205 206 204 201 200 197 189 176 175 180 186 185 189 194 192 194